Regional Weather Roundup
Issued by NWS

Home | Current Version | Previous Version | Graphics & Text | Print | Product List | Glossary On
Versions: 1 2 3 4 5 6 7 8 9 10 11 12 13 14 15 16 17 18 19 20 21 22 23 24 25 26 27 28 29 30 31 32 33 34 35 36 37 38 39 40 41 42 43 44 45 46 47 48 49 50
000
ASUS43 KIND 171209
RWRIN

WEATHER ROUNDUP FOR INDIANA
NATIONAL WEATHER SERVICE INDIANAPOLIS IN
700 AM EST WED DEC 17 2014

NOTE: "FAIR" INDICATES FEW OR NO CLOUDS BELOW 12,000 FEET WITH NO
SIGNIFICANT WEATHER AND/OR OBSTRUCTIONS TO VISIBILITY.

* - STATION DOES NOT REPORT WEATHER SUCH AS PRECIPITATION OR FOG.

+ - STATION NOT QUALITY CONTROLLED BY THE NATIONAL WEATHER SERVICE.
    USE DATA WITH CAUTION...ESPECIALLY DEWPOINT AND RELATIVE
    HUMIDITY OBSERVATIONS.

INZ001>003-010>013-019-020-171300-
NORTHWEST INDIANA

CITY           SKY/WX    TMP DP  RH WIND       PRES   REMARKS
GARY /AIRPORT/ CLOUDY    28  21  74 W16       30.22R WCI  17
KNOX *+        CLOUDY    28  22  78 W13       30.19R WCI  18
LA PORTE +     CLOUDY    30  25  81 W10G16    30.18R WCI  21
6HR MIN TEMP:  30; 6HR MAX TEMP:  34;

MICHIGAN CITY+ CLOUDY    30  23  74 W8G22     30.19S WCI  23
MONTICELLO +   CLOUDY    27  24  89 W10G16    30.22R WCI  17
RENSSELAER +   CLOUDY    28  27  93 W9        30.23R WCI  20
VALPARAISO     CLOUDY    27  22  81 W13       30.20R WCI  16
6HR MIN TEMP:  27; 6HR MAX TEMP:  32;


$$

LMZ046-743>745-171300-
SOUTHERN LAKE MICHIGAN

STATION/POSITION TIME  TEMP WIND        PRES
                       AIR  DIR/SP/G
                 (UTC) (F)  (DEG/KT/KT) (MB)

$$

INZ004-005-014>016-021>024-171300-
NORTH CENTRAL INDIANA

CITY           SKY/WX    TMP DP  RH WIND       PRES   REMARKS
ELKHART        CLOUDY    30  23  74 NW14      30.16  WCI  20
GOSHEN         CLOUDY    30  24  78 NW13G25   30.15R WCI  20
6HR MIN TEMP:  30; 6HR MAX TEMP:  34;

LOGANSPORT +   CLOUDY    28  23  80 W16       30.22R WCI  17
PERU/GRISSOM   CLOUDY    28  28 100 NW15      30.19R WCI  17
6HR MIN TEMP:  28; 6HR MAX TEMP:  31; 6HR PCP: TRACE;

ROCHESTER +    CLOUDY    32  28  86 W14       30.19R WCI  22
SOUTH BEND     CLOUDY    30  23  75 NW14G23   30.17  WCI  19
6HR MIN TEMP:  30; 6HR MAX TEMP:  33;

WARSAW +       CLOUDY    30  25  80 NW14G20   30.15R WCI  20

$$

INZ006>009-017-018-025>027-171300-
NORTHEAST INDIANA

CITY           SKY/WX    TMP DP  RH WIND       PRES   REMARKS
ANGOLA *+      CLOUDY    30  25  80 NW13      30.10R WCI  20
AUBURN +       CLOUDY    32  25  74 W15G23    30.13R WCI  22
FORT WAYNE     CLOUDY    31  26  82 W18       30.15R WCI  19
6HR MIN TEMP:  31; 6HR MAX TEMP:  34; 6HR PCP:  0.01;

HUNTINGTON +   CLOUDY    29  26  86 W12       30.16R WCI  20
6HR MIN TEMP:  29; 6HR MAX TEMP:  32;


$$

INZ028-029-035-036-043>045-051>053-171300-
WEST CENTRAL INDIANA

CITY           SKY/WX    TMP DP  RH WIND       PRES   REMARKS
GREENCASTLE +  CLOUDY    27  23  86 W7        30.25R WCI  19
LAFAYETTE      CLOUDY    25  21  85 W16       30.25R WCI  12
6HR MIN TEMP:  25; 6HR MAX TEMP:  29;

TERRE HAUTE    CLOUDY    26  21  81 NW9       30.29R WCI  17
6HR MIN TEMP:  26; 6HR MAX TEMP:  29;


$$

INZ030>032-037>040-046>048-054>057-064-065-171300-
CENTRAL INDIANA

CITY           SKY/WX    TMP DP  RH WIND       PRES   REMARKS
CP ATTERBURY + CLOUDY    30  27  86 MISG      30.25S
FRANKFORT +    CLOUDY    27  27 100 W15       30.24R WCI  15
INDIANAPOLIS   CLOUDY    26  23  88 NW9       30.22R WCI  17
6HR MIN TEMP:  26; 6HR MAX TEMP:  30; 6HR PCP: TRACE;

-EAGLE CREEK   CLOUDY    27  23  85 NW10      30.23R WCI  17
6HR MIN TEMP:  26; 6HR MAX TEMP:  30; 6HR PCP: TRACE;

KOKOMO *+      CLOUDY    28  25  86 W18       30.20R WCI  16
MARION +       CLOUDY    29  26  91 W17G24    30.19R WCI  17
MT COMFORT *+  CLOUDY    28  27  93 W16       30.23R WCI  17
SHELBYVILLE    CLOUDY    30  24  78 NW14      30.22R WCI  19
6HR MIN TEMP:  30; 6HR MAX TEMP:  33; 6HR PCP: TRACE;

ZIONSVILLE +   CLOUDY    27  23  84 W15       30.23R WCI  16
6HR MIN TEMP:  27; 6HR MAX TEMP:  31;


$$

INZ033-034-041-042-049-050-058-059-171300-
EAST CENTRAL INDIANA

CITY           SKY/WX    TMP DP  RH WIND       PRES   REMARKS
MUNCIE         CLOUDY    30  26  85 W12       30.18S WCI  20
6HR MIN TEMP:  30; 6HR MAX TEMP:  31; 6HR PCP: TRACE;


$$

INZ060-061-067>069-081>083-085>088-171300-
SOUTHWEST INDIANA

CITY           SKY/WX    TMP DP  RH WIND       PRES   REMARKS
EVANSVILLE     CLOUDY    32  24  72 NW3       30.32R
6HR MIN TEMP:  32; 6HR MAX TEMP:  35;

HUNTINGBURG *+ CLOUDY    30  23  74 NW12      30.29R WCI  21
6HR MIN TEMP:  30; 6HR MAX TEMP:  34;

WASHINGTON +   CLOUDY    29  27  90 N8        30.29R WCI  21
6HR MIN TEMP:  29; 6HR MAX TEMP:  32;


$$

INZ062-063-066-070>080-084-089>092-171300-
SOUTH CENTRAL AND SOUTHEAST INDIANA

CITY           SKY/WX    TMP DP  RH WIND       PRES   REMARKS
BLOOMINGTON    CLOUDY    26  23  88 NW8       30.25R WCI  18
6HR MIN TEMP:  26; 6HR MAX TEMP:  31;

SEYMOUR +      CLOUDY    32  27  80 W12       30.26  WCI  23

$$



USA.gov is the U.S. government's official web portal to all federal, state and local government web resources and services.